Location: Oberwangen
(47.4286°N, 8.9679°E)
Time: 09:28:43
(UTC+00:00)

Cosmos 1816 Rocket - Pass Details

Date: 25 October 2021
Orbit: 952 x 998 km, 82.9° (Epoch: 08 December)

Event Time Altitude Azimuth Distance (km) Brightness Sun altitude
Rises 17:00:00 0° 5° (N) 3,650 7.3 -7.7°
Reaches altitude 10° 17:05:20 10° 44° (NE) 2,708 6.4 -8.6°
Maximum altitude 17:06:31 11° 55° (NE) 2,670 6.2 -8.8°
Drops below altitude 10° 17:07:43 10° 66° (ENE) 2,711 6.2 -9.0°
Enters shadow 17:07:50 10° 67° (ENE) 2,718 6.2 -9.0°
